FENGYUN 1C DEB

Satellite information

Favourite Embed

Satellite Type and Status

DEBRISIN ORBIT

Key statistics

Satellite FENGYUN 1C DEB at a glance.

Uptime

9494

Days in orbit

Revolutions

≈ 14.4

Per day

Orbit

SSO

Sun Synchronous Orbit

Inclination

99.0

Latest

Satellite identification and parameters

Extended collection of information and parameters for FENGYUN 1C DEB.

Object identification

Identified? True

Debris? True

Object name: FENGYUN 1C DEB

International designator: 1999-025CFD

Object number (NORAD): 31754

Object ID (CCSDS): 31754

Country: PEOPLES REPUBLIC OF CHINA (PRC)

Current information (Y/N): Y

RCS size: SMALL

Orbital parameters

Period: 99.967 minutes

Inclination: 99.0184 deg

SMA: 7135.073 km

Apoapsis: 794.043 km

Periapsis: 719.834 km

RAAN: 78.2445 deg

Eccentricy: 0.0052003

Argument of periapsis: 150.2031 deg

Mean anomaly: 210.2135 deg

Mean motion: 14.40472948 rev/day

Mean motion (dot): 0.00003905 rev/day2

B* drag term: 0.0012231 1/REarth

Two-line elements (TLE)

Creation date: May 6, 2025, 3:54 a.m.

Reference frame: TEME

Reference center: EARTH

Epoch: May 5, 2025, 7:30 a.m. UTC

TLE line 0: 0 FENGYUN 1C DEB

TLE line 1: 1 31754U 99025CFD 25125.31261615 .00003905 00000-0 12231-2 0 9993

TLE line 2: 2 31754 99.0184 78.2445 0052003 150.2031 210.2135 14.40472948938002

Live tracking on map

Real-time ground track for satellite FENGYUN 1C DEB.

In-orbit conjunctions

A list of the most updated potential collisions computed for object FENGYUN 1C DEB.

Target Orbit TCA Probability of collision Miss distance Type
DELTA 1 DEB LEO 2025-04-07 10:16:03 0.0001212696 321.0 (m) DEBRIS
AUREOLE 3 LEO 2024-11-26 09:39:56 0.0001655186 493.0 (m) PAYLOAD
SL-16 DEB LEO 2024-11-11 17:14:06 0.0001037586 532.0 (m) DEBRIS
FENGYUN 1C DEB SSO 2024-11-10 05:49:53 0.0002218325 961.0 (m) DEBRIS
NOAA 16 DEB SSO 2024-09-25 21:26:55 0.0001781379 108.0 (m) DEBRIS

Associated space launch

Chinese polar orbiting meteorological satellite

FENGYUN 1C DEB was lifted into orbit during the mission ‘Long March 4B | Feng Yun 1C’, on board a Long March 4B space rocket.

The launch took place on May 10, 1999, 1:33 a.m. from Launch Complex 7.

For more information about the launch, click the button.

Launch to space Long March 4B | Feng Yun 1C
Long March 4B | Feng Yun 1C

Agency: N/A

Status: Launch Successful

Launch date: May 10, 1999, 1:33 a.m. UTC

Rocket: Long March 4B

Launch pad: Launch Complex 7

Location: Taiyuan Satellite Launch Center, People's Republic of China

...

Latest news about this satellite

There are no fresh news available about this satellite. Check back as we update our databases every day.


Newsletter sign-up

Weekly statistics, charts and insights to help you stay on top of the space industry.